User: anonymous   Login
Location: Emblem
(62.4273°N, 6.4710°E)
Time: 11:37:31
(UTC+01:00)
Language:

S-56A Canister/Altair - Orbit

View from above orbital plane
View from above orbital plane
View from above satellite
View from above satellite

Ground track
Ground track

The orbit data is extracted from the following two-line orbital elements,

1 00082U 61004B   24053.87762549  .00000553  00000-0  51722-3 0  9996
2 00082  38.8506 256.7489 1163826  97.2185 276.1987 12.26564845972957
Epoch (UTC): 22 February 2024 21:03:46
Eccentricity: 0.1163826
inclination: 38.8506°
perigee height: 640 km
apogee height: 2488 km
right ascension of ascending node: 256.7489°
argument of perigee: 97.2185°
revolutions per day: 12.26564845
mean anomaly at epoch: 276.1987°
orbit number at epoch: 97295

The dashed part of the orbit path shows where the satellite is in the earth's shadow,  

DLR